Home   Weather   Hohenems   Past weeks

Flag for Austria Past Weather in Hohenems, Vorarlberg, Austria — Yesterday and Last 2 Weeks

Now
41 °F

Quite cool.


Feels Like: 41 °F
Forecast: 36 / 47 °F
Wind: 1 mph from Southwest

Location: Feldkirch

Current Time: Apr 30, 2017 at 3:47:44 am

Latest Report: Apr 30, 2017 at 2:00 am


Visibility: N/A

Pressure: 30.00 "Hg

Humidity: 73%

Dew Point: 33 °F

Location of HohenemsLocation

Past Weather in Hohenems — Graph

°F

Hohenems Temperature Yesterday

Maximum temperature yesterday: 56 °F (at 5:00 pm)
Minimum temperature yesterday: 32 °F (at 5:00 am)
Average temperature yesterday: 44 °F

High & Low Weather Summary for the Past Weeks

 TemperatureHumidityPressure
High64 °F (Apr 24, 6:00 pm)100% (Apr 19, 7:00 am)30.59 "Hg (Apr 19, 7:00 am)
Low27 °F (Apr 20, 7:00 am)23% (Apr 21, 5:00 pm)29.70 "Hg (Apr 25, 3:00 pm)
Average43 °F77%30.13 "Hg
* Reported Apr 15 2:00 am — Apr 30 2:00 am, Hohenems, Weather by CustomWeather, © 2017

Note: Actual official high and low records may vary slightly from our data, if they occured in-between our weather recording intervals... More about our weather records

Advertising

Hohenems Weather History for the Previous 24 Hours

Scroll right to see more
 ConditionsComfort  
Time TempWeatherWind HumidityBarometerVisibility
2:00 am
Sun, Apr 30
41 °FQuite cool.1 mph73%30.00 "HgN/A
1:00 am42 °FQuite cool.No wind75%30.01 "HgN/A
12:00 am42 °FQuite cool.2 mph75%30.01 "HgN/A
11:00 pm
Sat, Apr 29
45 °FQuite cool.1 mph70%30.01 "HgN/A
10:00 pm44 °FQuite cool.1 mph71%30.02 "HgN/A
9:00 pm46 °FCool.1 mph67%30.00 "HgN/A
8:00 pm50 °FCool.1 mph59%29.98 "HgN/A
7:00 pm53 °FCool.2 mph52%29.98 "HgN/A
6:00 pm55 °FCool.2 mph48%29.98 "HgN/A
5:00 pm56 °FRefreshingly cool.2 mph47%29.98 "HgN/A
4:00 pm55 °FCool.3 mph43%30.00 "HgN/A
3:00 pm55 °FRefreshingly cool.2 mph41%30.01 "HgN/A
2:00 pm54 °FCool.1 mph43%30.03 "HgN/A
1:00 pm51 °FCool.1 mph46%30.06 "HgN/A
12:00 pm49 °FCool.2 mph49%30.08 "HgN/A
11:00 am47 °FPassing clouds.2 mph61%30.11 "Hg16 mi
10:00 am44 °FQuite cool.1 mph67%30.13 "HgN/A
9:00 am40 °FQuite cool.1 mph76%30.15 "HgN/A
8:00 am36 °FChilly.2 mph84%30.16 "HgN/A
7:00 am34 °FSunny.1 mph95%30.17 "Hg19 mi
6:00 am33 °FChilly.1 mph98%30.17 "HgN/A
5:00 am32 °FChilly.1 mph98%30.18 "HgN/A
4:00 am33 °FChilly.1 mph97%30.17 "HgN/A
3:00 am36 °FChilly.1 mph95%30.16 "HgN/A
Weather by CustomWeather, © 2017

See weather overviewHow to use our weather pages